Location: Newark
(48.7500°N, 7.4667°E)
Time: 15:55:51
(UTC+00:00)

OTV 5 (USA 277) - Visible Passes

Search period start: 22 August 2019 00:00
Search period end: 01 September 2019 00:00
Orbit: 305 x 329 km, 54.5° (Epoch: 20 August)

Date Brightness Start Highest point End Pass type
(mag) Time Alt. Az. Time Alt. Az. Time Alt. Az.
22 Aug ? 02:41:19 65° SSE 02:41:19 65° SSE 02:43:43 10° SE visible
23 Aug ? 02:57:33 13° SSE 02:57:33 13° SSE 02:57:55 10° SSE visible
24 Aug ? 19:30:14 10° S 19:32:23 21° SE 19:33:12 18° ESE visible
24 Aug ? 21:03:53 10° WSW 21:04:10 12° WSW 21:04:10 12° WSW visible
25 Aug ? 19:44:10 10° SW 19:46:48 48° SE 19:48:20 20° ENE visible
25 Aug ? 21:18:44 10° W 21:19:15 14° WNW 21:19:15 14° WNW visible
26 Aug ? 19:58:38 10° WSW 20:01:20 74° NNW 20:02:59 20° NE visible
26 Aug ? 21:33:40 10° WNW 21:33:54 12° WNW 21:33:54 12° WNW visible
27 Aug ? 20:13:23 10° W 20:15:58 39° NNW 20:17:20 21° NE visible
28 Aug ? 18:53:27 10° SW 18:56:09 75° SSE 18:58:51 10° ENE visible
28 Aug ? 20:28:17 10° WNW 20:30:41 27° NNW 20:31:29 23° NNE visible
29 Aug ? 19:08:04 10° WSW 19:10:44 52° NNW 19:13:23 10° NE visible
29 Aug ? 20:43:12 10° WNW 20:45:27 23° N 20:45:30 23° N visible
30 Aug ? 19:22:55 10° W 19:25:24 32° NNW 19:27:53 10° NE visible
30 Aug ? 20:58:00 10° NW 20:59:27 20° NNW 20:59:27 20° NNW visible
31 Aug ? 19:37:51 10° WNW 19:40:10 24° N 19:42:28 10° NE visible
31 Aug ? 21:12:38 10° NW 21:13:20 15° NW 21:13:20 15° NW visible
